Le nostre stazioni meteo in Italia

Pubblicità
Il mio iltempo24.it
Gudja, Malta (16599): Temperatura & dewpoint: 04.04.2020 05:00:00 - 10.04.2020 05:00:00 (CEST)Gudja, Malta (16599): velocità del vento: 04.04.2020 05:00:00 - 10.04.2020 05:00:00 (CEST)Gudja, Malta (16599): direzione del vento: 04.04.2020 05:00:00 - 10.04.2020 05:00:00 (CEST)Gudja, Malta (16599): reduced air pressure: 04.04.2020 05:00:00 - 10.04.2020 05:00:00 (CEST)Gudja, Malta (16599): visibility: 04.04.2020 05:00:00 - 10.04.2020 05:00:00 (CEST)
Data & Tempo tt [°C] td [°C] ff [km/h] ff [kn] dd ppp [hPa] vv [km]
10.04.2020 05:00:00 10,9 10,4 9 5 NO 1022,0 12
10.04.2020 04:00:00 - - - - - - -
10.04.2020 03:00:00 - - - - - - -
10.04.2020 02:00:00 11,2 10,0 9 5 NO 1022,6 10
10.04.2020 01:00:00 - - - - - - -
10.04.2020 00:00:00 - - - - - - -
09.04.2020 23:00:00 12,4 11,0 8 4 NO 1023,2 21
09.04.2020 22:00:00 - - - - - - -
09.04.2020 21:00:00 - - - - - - -
09.04.2020 20:00:00 13,9 11,5 11 6 ONO 1022,0 15
09.04.2020 19:00:00 - - - - - - -
09.04.2020 18:00:00 - - - - - - -
09.04.2020 17:00:00 16,8 12,4 8 4 ENE 1021,6 20
09.04.2020 16:00:00 - - - - - - -
09.04.2020 15:00:00 - - - - - - -
09.04.2020 14:00:00 17,7 12,4 15 8 NNO 1022,3 25
09.04.2020 13:00:00 - - - - - - -
09.04.2020 12:00:00 - - - - - - -
09.04.2020 11:00:00 17,9 12,2 15 8 N 1023,2 25
09.04.2020 10:00:00 - - - - - - -
09.04.2020 09:00:00 - - - - - - -
09.04.2020 08:00:00 14,0 12,2 13 7 NNO 1022,5 18
09.04.2020 07:00:00 - - - - - - -
09.04.2020 06:00:00 - - - - - - -
09.04.2020 05:00:00 11,3 9,5 9 5 NO 1022,0 29
09.04.2020 04:00:00 - - - - - - -
09.04.2020 03:00:00 - - - - - - -
09.04.2020 02:00:00 12,1 6,5 9 5 O 1023,0 19
09.04.2020 01:00:00 - - - - - - -
09.04.2020 00:00:00 - - - - - - -
08.04.2020 23:00:00 11,8 5,3 9 5 ONO 1024,0 30
08.04.2020 22:00:00 - - - - - - -
08.04.2020 21:00:00 - - - - - - -
08.04.2020 20:00:00 13,4 6,1 8 4 ONO 1023,0 45
08.04.2020 19:00:00 - - - - - - -
08.04.2020 18:00:00 - - - - - - -
08.04.2020 17:00:00 18,0 4,0 15 8 OSO 1022,6 35
08.04.2020 16:00:00 - - - - - - -
08.04.2020 15:00:00 - - - - - - -
08.04.2020 14:00:00 18,1 4,4 11 6 NNE 1023,7 35
08.04.2020 13:00:00 - - - - - - -
08.04.2020 12:00:00 - - - - - - -
08.04.2020 11:00:00 16,1 9,4 13 7 NE 1025,0 30
08.04.2020 10:00:00 - - - - - - -
08.04.2020 09:00:00 - - - - - - -
08.04.2020 08:00:00 14,0 10,3 13 7 NNE 1024,5 18
08.04.2020 07:00:00 - - - - - - -
08.04.2020 06:00:00 - - - - - - -
08.04.2020 05:00:00 12,9 9,3 9 5 NE 1024,4 28
08.04.2020 04:00:00 - - - - - - -
08.04.2020 03:00:00 - - - - - - -
08.04.2020 02:00:00 14,1 10,1 9 5 NE 1025,1 30
08.04.2020 01:00:00 - - - - - - -
08.04.2020 00:00:00 - - - - - - -
07.04.2020 23:00:00 14,6 11,9 13 7 N 1025,3 12
07.04.2020 22:00:00 - - - - - - -
07.04.2020 21:00:00 - - - - - - -
07.04.2020 20:00:00 14,3 10,2 9 5 N 1024,9 30
07.04.2020 19:00:00 - - - - - - -
07.04.2020 18:00:00 - - - - - - -
07.04.2020 17:00:00 16,9 9,9 9 5 NNE 1024,4 40
07.04.2020 16:00:00 - - - - - - -
07.04.2020 15:00:00 - - - - - - -
07.04.2020 14:00:00 17,9 10,0 8 4 S 1025,1 45
07.04.2020 13:00:00 - - - - - - -
07.04.2020 12:00:00 - - - - - - -
07.04.2020 11:00:00 16,7 10,1 9 5 N 1025,2 35
07.04.2020 10:00:00 - - - - - - -
07.04.2020 09:00:00 - - - - - - -
07.04.2020 08:00:00 14,2 11,9 5 3 NE 1024,4 25
07.04.2020 07:00:00 - - - - - - -
07.04.2020 06:00:00 - - - - - - -
07.04.2020 05:00:00 12,5 10,2 8 4 NNE 1023,6 35
07.04.2020 04:00:00 - - - - - - -
07.04.2020 03:00:00 - - - - - - -
07.04.2020 02:00:00 13,3 10,1 9 5 NE 1024,3 35
07.04.2020 01:00:00 - - - - - - -
07.04.2020 00:00:00 - - - - - - -
06.04.2020 23:00:00 14,4 11,3 15 8 NE 1024,2 24
06.04.2020 22:00:00 - - - - - - -
06.04.2020 21:00:00 - - - - - - -
06.04.2020 20:00:00 14,8 11,5 18 10 NE 1022,5 19
06.04.2020 19:00:00 - - - - - - -
06.04.2020 18:00:00 - - - - - - -
06.04.2020 17:00:00 17,2 11,3 16 9 NE 1021,7 22
06.04.2020 16:00:00 - - - - - - -
06.04.2020 15:00:00 - - - - - - -
06.04.2020 14:00:00 16,7 10,3 11 6 ENE 1021,7 22
06.04.2020 13:00:00 - - - - - - -
06.04.2020 12:00:00 - - - - - - -
06.04.2020 11:00:00 17,7 9,3 9 5 N 1021,4 28
06.04.2020 10:00:00 - - - - - - -
06.04.2020 09:00:00 - - - - - - -
06.04.2020 08:00:00 12,6 10,4 8 4 O 1019,9 11
06.04.2020 07:00:00 - - - - - - -
06.04.2020 06:00:00 - - - - - - -
06.04.2020 05:00:00 11,2 10,3 9 5 ONO 1018,5 13
06.04.2020 04:00:00 - - - - - - -
06.04.2020 03:00:00 - - - - - - -
06.04.2020 02:00:00 12,3 10,9 13 7 NO 1018,4 15
06.04.2020 01:00:00 - - - - - - -
06.04.2020 00:00:00 - - - - - - -
05.04.2020 23:00:00 13,5 10,0 21 11 NO 1018,6 23
05.04.2020 22:00:00 - - - - - - -
05.04.2020 21:00:00 - - - - - - -
05.04.2020 20:00:00 14,1 9,4 26 14 ONO 1017,5 24
05.04.2020 19:00:00 - - - - - - -
05.04.2020 18:00:00 - - - - - - -
05.04.2020 17:00:00 17,0 9,7 34 18 ONO 1016,5 26
05.04.2020 16:00:00 - - - - - - -
05.04.2020 15:00:00 - - - - - - -
05.04.2020 14:00:00 18,5 8,9 26 14 NO 1016,4 30
05.04.2020 13:00:00 - - - - - - -
05.04.2020 12:00:00 - - - - - - -
05.04.2020 11:00:00 17,3 7,6 31 17 NNO 1017,3 30
05.04.2020 10:00:00 - - - - - - -
05.04.2020 09:00:00 - - - - - - -
05.04.2020 08:00:00 12,9 9,3 21 11 NO 1016,6 22
05.04.2020 07:00:00 - - - - - - -
05.04.2020 06:00:00 - - - - - - -
05.04.2020 05:00:00 10,1 8,7 15 8 NO 1015,6 18
05.04.2020 04:00:00 - - - - - - -
05.04.2020 03:00:00 - - - - - - -
05.04.2020 02:00:00 11,5 9,3 13 7 O 1015,9 21
05.04.2020 01:00:00 - - - - - - -
05.04.2020 00:00:00 - - - - - - -
04.04.2020 23:00:00 11,7 8,7 16 9 NNO 1015,6 23
04.04.2020 22:00:00 - - - - - - -
04.04.2020 21:00:00 - - - - - - -
04.04.2020 20:00:00 13,7 10,1 26 14 NO 1013,7 20
04.04.2020 19:00:00 - - - - - - -
04.04.2020 18:00:00 - - - - - - -
04.04.2020 17:00:00 17,2 10,0 35 19 NO 1012,8 23
04.04.2020 16:00:00 - - - - - - -
04.04.2020 15:00:00 - - - - - - -
04.04.2020 14:00:00 17,0 11,0 22 12 NO 1012,6 30
04.04.2020 13:00:00 - - - - - - -
04.04.2020 12:00:00 - - - - - - -
04.04.2020 11:00:00 14,1 12,3 21 11 NNE 1012,3 21
04.04.2020 10:00:00 - - - - - - -
04.04.2020 09:00:00 - - - - - - -
04.04.2020 08:00:00 12,0 11,7 16 9 NNE 1010,4 5
04.04.2020 07:00:00 - - - - - - -
04.04.2020 06:00:00 - - - - - - -
04.04.2020 05:00:00 11,7 11,3 15 8 N 1008,4 6

tt = Temperatura
td = dewpoint
ff = velocità del vento
dd = direzione del vento
ppp = reduced air pressure
vv = visibility

Stazioni seguenti

WeatherPro
AMSI
MeteoEarth